{"data":{"norad_id":67365,"epoch":"2026-09-19T22:44:07.855296Z","epoch_age_seconds":62053,"freshness":"FRESH","line1":"1 67365U 26004C   26262.94731314  .00002180  00000+0  23675-3 0  9995","line2":"2 67365  97.8059 260.1148 0008065 177.2602 182.8661 14.89125774 37395","mean_motion":14.89125774,"eccentricity":0.0008065,"inclination_deg":97.8059,"raan_deg":260.1148,"arg_perigee_deg":177.2602,"mean_anomaly_deg":182.8661,"bstar":0.00023675,"rev_number":3739,"period_min":96.701032588534,"perigee_km":595.03730452696,"apogee_km":606.29411329644,"semimajor_km":6978.8027089117,"source":"CELESTRAK","updated_at":"2026-09-20T09:00:34.881642Z"}}